This is the latest recevied weather packets stored in our database for station/object DJ4CK-1. If no packets are shown the sender has not sent any weather packets the latest 1 day(s).
| Time | Temp. | Humidity | Pressure | Rain* | Wind** | Luminosity | Snow |
|---|---|---|---|---|---|---|---|
| 1778069344 | 19.44° C | 48% | 1006 hPa | 0 mm | - | - | - |
| 1778069283 | 18.89° C | 47% | 1006.1 hPa | 0 mm | - | - | - |
| 1778069104 | 19.44° C | 47% | 1006.1 hPa | 0 mm | - | - | - |
| 1778069044 | 19.44° C | 47% | 1006.1 hPa | 0 mm | - | - | - |
| 1778068984 | 19.44° C | 47% | 1006.1 hPa | 0 mm | - | - | - |
| 1778068923 | 19.44° C | 47% | 1006.1 hPa | 0 mm | - | - | - |
| 1778068684 | 19.44° C | 47% | 1006.1 hPa | 0 mm | - | - | - |
| 1778068624 | 19.44° C | 47% | 1006.1 hPa | 0 mm | - | - | - |
| 1778068564 | 19.44° C | 47% | 1006.2 hPa | 0 mm | - | - | - |
| 1778068264 | 17.78° C | 50% | 1006.2 hPa | 0 mm | - | - | - |
| 1778068203 | 18.33° C | 50% | 1006.4 hPa | 0 mm | - | - | - |
| 1778067964 | 18.89° C | 51% | 1006.4 hPa | 0 mm | - | - | - |
| 1778067724 | 18.89° C | 48% | 1006.4 hPa | 0 mm | - | - | - |
| 1778067663 | 18.89° C | 50% | 1006.4 hPa | 0 mm | - | - | - |
| 1778067124 | 18.33° C | 50% | 1006.5 hPa | 0 mm | - | - | - |
| 1778067064 | 18.33° C | 51% | 1006.5 hPa | 0 mm | - | - | - |
| 1778066824 | 18.33° C | 50% | 1006.6 hPa | 0 mm | - | - | - |
| 1778066524 | 18.33° C | 50% | 1006.6 hPa | 0 mm | - | - | - |
| 1778066284 | 18.33° C | 51% | 1006.7 hPa | 0 mm | - | - | - |
| 1778066224 | 18.33° C | 50% | 1006.7 hPa | 0 mm | - | - | - |
| 1778065924 | 18.89° C | 50% | 1006.8 hPa | 0 mm | - | - | - |
| 1778065863 | 18.89° C | 52% | 1006.8 hPa | 0 mm | - | - | - |
| 1778065624 | 18.89° C | 49% | 1006.8 hPa | 0 mm | - | - | - |
| 1778065384 | 19.44° C | 49% | 1006.8 hPa | 0 mm | - | - | - |
| 1778065324 | 18.89° C | 49% | 1006.8 hPa | 0 mm | - | - | - |
* Rain latest hour (hover to see other rain measurements)
** Current wind speed in m/s (hover to see current wind gust speed)